Vertical_Velocity
1 -1 -2 4 -3 -1 1 -5 -2 0 0 1 2 -5 3 1 4 3 1 0 -0 -3 -2 -2 -1 1 2 2 1 -0 -2 -1 -2 -6 -5 -5 -4 -3 -2 -0 2 3 -8 -3
-0 1 3 -1 -1 -1 2 -6 -7 -2 -0 3 1 -3 3 -1 0 1 2 -3 1 0 -0 -2 -3 -3 -5 -4 -3 -2 -2 -2 -2 -1 1 -1 -1 -4 -6 -3 1 2 2 -0
4 -2 -3 -1 0 -2 -5 -1 11 1 0 2 4 -6 -2 -0 3 -1 3 1 -3 -1 -1 -0 -1 -2 -4 -6 -6 -4 -2 -0 0 -1 -1 3 6 6 3 -1 5 -2 -3 -3
-3 -5 -1 -1 -3 -2 2 4 -1 -0 -2 3 4 1 -1 -2 4 2 -2 -3 -2 -0 -0 -0 -1 -1 -4 -3 -1 1 -3 -5 -2 -1 -1 -4 -3 -1 1 1 -1 -1 1 1
7 1 -1 -3 3 5 7 -1 1 -1 -2 -0 2 1 1 2 -0 5 4 -1 -1 1 -2 -3 -3 -4 -3 -2 -1 -1 -2 -3 -3 -2 -1 -1 1 -0 -2 3 3 2 -1 5
-3 -3 2 3 -1 0 -1 -0 -2 -2 0 -2 0 0 0 -2 -4 1 1 3 -1 1 -2 -3 -3 -3 -4 -3 -3 -5 2 -1 1 -1 -1 -3 -4 -4 -5 4 2 5 3 -0
-3 -4 2 -3 -2 -1 -2 -1 0 -1 -4 -0 -1 -1 -0 -0 -3 0 1 6 1 -1 -2 -1 -3 -2 -4 -2 -1 -4 -1 -4 -1 2 0 -2 -0 1 1 -3 -2 -2 0 1
0 -8 -1 2 4 5 1 -2 -2 -2 2 -0 -3 2 -2 -0 3 -1 -3 2 -2 1 1 1 -2 1 -3 -4 -3 0 -2 4 1 1 1 1 -2 -2 2 0 -2 6 4 0
-3 -5 -3 2 3 2 2 0 1 -2 -2 -1 -2 0 -0 3 3 -1 -4 2 -2 1 -1 -0 -1 1 3 0 -1 2 2 -3 0 -7 -2 0 -4 2 3 -1 -3 -2 1 5
2 2 2 6 4 2 -0 2 -4 -1 -2 -2 -3 0 0 -0 2 1 0 3 -3 -2 -3 -0 -0 3 -1 -0 -3 -3 0 -1 1 3 -1 3 -1 -2 -1 -1 1 -3 0 -5
2 5 -0 2 -2 0 -2 -1 -1 2 -1 -0 2 -2 1 2 1 0 1 0 -2 -2 -4 -1 -0 -2 -2 -1 -2 -3 -0 -0 -4 -2 -1 1 -1 -2 0 -3 2 -0 0 0
11 3 2 5 3 2 -1 4 0 -3 -4 -1 -1 0 5 -1 2 2 0 -2 -4 -5 -4 -4 -3 2 2 -2 -3 -2 -2 -3 -3 -3 -3 -5 -4 -5 0 -1 -4 0 -2 -3
13 -9 5 0 -4 -1 -1 2 4 -4 1 -1 -0 -0 1 2 3 1 -1 -1 -4 -5 -5 -4 -6 -7 -7 -1 -2 -1 0 0 -4 -4 -2 1 1 2 1 -2 -4 -5 -2 0
1 5 -2 -2 19 4 -3 1 2 1 -2 3 2 -0 2 -1 -3 0 -2 -1 -3 -1 -4 -2 -3 -1 2 1 1 3 -4 -4 -0 -2 -3 -1 2 -3 -4 -1 -1 -4 -7 -5
-11 -5 -3 6 9 -1 3 5 -2 -1 1 -4 10 2 -0 -2 -0 3 1 -0 2 6 8 5 3 -0 -3 -3 -1 -2 -4 -5 -3 -2 -3 -3 -5 -6 -5 -6 -5 -3 1 -1
-9 -0 -3 -0 4 3 -9 -3 -2 -2 2 -1 3 2 -3 1 4 1 -2 -2 -3 -1 2 4 1 4 2 2 2 1 2 0 0 0 -2 -3 -2 -4 -3 -1 1 1 3 0
-3 1 1 1 3 3 -35 2 2 2 -2 0 -3 9 0 1 2 2 2 1 -2 -2 -0 1 -1 1 -1 -0 -1 -2 -1 -1 0 2 -0 -2 -2 2 4 4 1 -0 -2 -0
-1 2 2 12 6 -33 23 -1 5 -6 -5 -3 2 6 4 -1 1 -1 0 2 -1 -1 -1 -3 -2 -3 -2 -2 -2 0 -2 -0 -1 -2 3 3 2 3 5 3 -1 1 3 2
7 -6 -5 -8 3 10 -16 -5 -7 -6 6 4 2 -4 4 -0 1 3 2 1 0 -2 -3 -3 -4 -4 -6 -5 -4 -4 -4 -4 -1 -4 -5 -3 -2 -1 0 1 0 -1 -1 2
3 -1 -4 2 -1 -42 40 8 10 -3 -23 1 1 4 3 -1 -5 1 -2 3 1 0 0 -1 -0 -1 1 -0 -2 -1 -0 -2 -2 -3 -1 -3 -1 0 -1 0 3 3 5 3
-1 -3 -10 4 0 -20 6 16 3 -10 2 -7 8 3 -2 -6 -1 3 -1 1 -3 -3 -1 -1 0 1 1 -1 0 -2 -1 -1 -0 2 0 2 0 3 3 1 0 -2 -4 -5
-5 3 -7 0 -0 -35 2 4 -26 34 -7 11 3 1 5 4 2 7 2 -2 0 -0 1 2 1 2 -1 1 -3 1 4 2 -4 -3 -2 -4 -5 -7 -6 -6 -4 1 4 6
-14 -16 -5 1 4 -7 4 2 1 7 6 4 2 5 5 4 6 9 9 12 6 4 -4 -2 1 2 3 -4 2 1 3 -5 -8 -5 -4 -2 -0 1 -1 -1 -1 1 -2 -2
-9 -4 -7 2 -21 -13 -3 0 5 9 3 -3 4 4 2 4 3 6 1 2 7 8 7 0 -3 0 3 2 1 1 -5 -4 -6 -3 -3 -3 -2 -3 -4 -3 -3 -2 -2 -2
-2 -2 -12 -18 4 8 1 3 -0 1 3 0 -3 -4 4 -3 0 1 3 6 8 7 6 4 8 4 1 0 1 -3 -5 -3 -3 -4 -2 -2 -5 -5 -5 -4 -5 -9 -6 -3
-15 -7 -17 9 13 2 4 4 4 3 1 -3 -1 1 -4 -2 -5 -1 -3 -1 1 1 0 4 -3 -1 10 2 -3 -4 -2 0 -1 -2 -3 -4 -4 -7 -4 -6 -5 -3 -0 -0
Height
5915 5918 5922 5927 5927 5930 5931 5933 5934 5937 5938 5940 5940 5939 5940 5942 5942 5942 5939 5938 5936 5935 5934 5932 5932 5932 5932 5933 5932 5933 5933 5934 5934 5935 5934 5934 5933 5931 5929 5927 5927 5926 5924 5920
5913 5917 5921 5923 5926 5928 5931 5933 5935 5937 5938 5941 5942 5941 5941 5942 5944 5944 5943 5939 5937 5936 5936 5935 5934 5933 5933 5933 5933 5933 5934 5935 5936 5936 5935 5935 5934 5932 5930 5929 5929 5926 5924 5923
5913 5915 5916 5921 5923 5927 5930 5932 5937 5939 5939 5940 5943 5942 5942 5943 5945 5945 5944 5942 5939 5938 5937 5936 5936 5935 5934 5935 5935 5937 5937 5938 5938 5938 5938 5937 5935 5933 5930 5927 5926 5924 5922 5921
5908 5911 5915 5919 5921 5925 5930 5933 5935 5937 5939 5940 5943 5944 5943 5944 5946 5946 5945 5944 5941 5938 5937 5936 5935 5935 5934 5934 5935 5936 5934 5935 5936 5936 5935 5934 5931 5929 5929 5927 5923 5921 5919 5918
5907 5909 5913 5916 5921 5926 5930 5930 5934 5935 5936 5939 5940 5943 5943 5944 5946 5947 5947 5945 5943 5940 5938 5937 5936 5935 5935 5935 5935 5934 5935 5935 5934 5934 5932 5929 5925 5926 5925 5922 5919 5917 5915 5914
5902 5906 5911 5916 5918 5923 5925 5928 5931 5932 5934 5936 5937 5940 5942 5943 5945 5946 5946 5947 5945 5942 5940 5938 5937 5936 5935 5933 5932 5933 5934 5934 5932 5931 5930 5929 5927 5927 5921 5913 5911 5916 5915 5912
5896 5901 5907 5912 5914 5919 5922 5925 5928 5930 5931 5934 5935 5938 5940 5943 5944 5944 5945 5946 5945 5943 5939 5937 5936 5935 5933 5933 5933 5932 5934 5932 5931 5928 5928 5925 5922 5921 5919 5912 5910 5909 5909 5907
5892 5897 5901 5908 5912 5918 5919 5922 5925 5925 5930 5932 5934 5937 5939 5942 5943 5943 5942 5943 5943 5942 5940 5938 5937 5935 5933 5932 5932 5933 5932 5930 5928 5927 5925 5923 5920 5917 5915 5910 5906 5905 5902 5901
5890 5894 5899 5905 5910 5914 5915 5918 5923 5924 5926 5928 5931 5934 5936 5938 5941 5941 5942 5943 5941 5940 5939 5938 5937 5936 5935 5933 5931 5932 5932 5929 5929 5927 5923 5922 5918 5914 5913 5908 5905 5904 5900 5899
5887 5892 5896 5902 5904 5907 5909 5915 5917 5920 5922 5924 5927 5931 5933 5935 5937 5938 5939 5939 5939 5938 5937 5937 5937 5937 5936 5933 5931 5930 5930 5927 5925 5923 5921 5919 5916 5913 5909 5904 5902 5900 5897 5893
5880 5887 5891 5895 5895 5902 5904 5907 5911 5916 5918 5920 5923 5927 5930 5932 5933 5934 5936 5936 5936 5935 5934 5935 5935 5935 5934 5932 5931 5929 5925 5922 5920 5919 5916 5912 5910 5907 5904 5898 5896 5894 5890 5887
5873 5878 5884 5889 5892 5897 5899 5901 5906 5908 5914 5915 5918 5924 5926 5926 5929 5931 5931 5932 5932 5931 5931 5932 5933 5931 5931 5930 5927 5925 5922 5918 5916 5913 5910 5907 5903 5900 5896 5892 5890 5886 5882 5878
5864 5867 5875 5880 5885 5887 5890 5896 5899 5903 5907 5907 5912 5917 5919 5921 5925 5927 5928 5926 5925 5926 5926 5926 5926 5927 5927 5925 5923 5921 5919 5917 5913 5909 5905 5902 5898 5894 5889 5885 5881 5877 5873 5867
5853 5858 5867 5873 5882 5885 5887 5892 5895 5897 5900 5903 5905 5910 5912 5914 5917 5919 5920 5920 5920 5920 5920 5921 5920 5921 5921 5920 5919 5917 5916 5912 5908 5904 5900 5898 5893 5889 5885 5880 5875 5869 5864 5859
5843 5848 5857 5866 5872 5876 5881 5886 5890 5892 5895 5897 5903 5903 5906 5908 5912 5912 5914 5915 5916 5916 5915 5914 5913 5913 5914 5913 5912 5911 5908 5906 5903 5900 5896 5892 5886 5881 5876 5871 5865 5860 5856 5852
5834 5842 5849 5854 5862 5868 5871 5877 5882 5885 5888 5891 5896 5898 5900 5903 5905 5908 5909 5911 5912 5912 5911 5910 5908 5908 5907 5907 5905 5903 5900 5897 5893 5890 5887 5882 5878 5873 5866 5861 5856 5852 5847 5841
5826 5833 5839 5846 5852 5858 5858 5867 5874 5878 5881 5886 5888 5895 5896 5897 5900 5903 5905 5906 5906 5906 5906 5905 5904 5904 5902 5901 5898 5895 5892 5889 5886 5882 5878 5873 5868 5864 5860 5854 5848 5841 5835 5829
5819 5824 5832 5840 5842 5841 5856 5864 5866 5871 5876 5880 5883 5886 5890 5893 5895 5897 5899 5900 5900 5900 5900 5900 5899 5898 5896 5894 5892 5890 5886 5883 5879 5875 5872 5869 5863 5856 5849 5842 5835 5829 5823 5815
5813 5816 5822 5828 5833 5843 5848 5855 5860 5863 5869 5873 5875 5880 5885 5887 5889 5891 5894 5894 5895 5894 5893 5893 5892 5891 5890 5888 5886 5884 5881 5878 5874 5869 5863 5857 5850 5844 5837 5831 5825 5817 5810 5802
5804 5811 5816 5822 5826 5830 5850 5854 5855 5859 5858 5866 5871 5874 5877 5879 5881 5885 5887 5888 5888 5886 5886 5886 5886 5885 5883 5881 5879 5877 5873 5869 5865 5860 5854 5848 5842 5835 5828 5821 5814 5807 5799 5791
5796 5803 5808 5816 5819 5827 5843 5849 5850 5847 5859 5862 5865 5868 5870 5871 5875 5878 5879 5880 5879 5880 5879 5879 5879 5878 5876 5874 5871 5869 5864 5859 5856 5852 5845 5838 5831 5823 5817 5810 5803 5796 5789 5782
5790 5797 5803 5810 5813 5821 5837 5840 5839 5849 5853 5857 5859 5861 5863 5865 5867 5869 5869 5871 5872 5872 5872 5871 5870 5869 5867 5865 5862 5859 5855 5851 5846 5840 5833 5827 5820 5814 5808 5801 5794 5787 5780 5772
5783 5790 5798 5805 5810 5819 5827 5832 5836 5840 5845 5848 5851 5854 5855 5856 5857 5860 5862 5863 5863 5864 5864 5863 5862 5860 5858 5856 5855 5850 5845 5840 5835 5829 5824 5818 5812 5806 5799 5792 5785 5777 5770 5762
5777 5785 5791 5799 5804 5811 5818 5823 5827 5832 5836 5839 5843 5846 5847 5847 5847 5849 5851 5853 5854 5855 5853 5853 5853 5850 5848 5848 5844 5840 5836 5831 5826 5820 5815 5809 5803 5796 5789 5782 5775 5768 5760 5753
5771 5780 5786 5792 5798 5804 5810 5816 5821 5825 5827 5831 5834 5838 5839 5837 5838 5840 5842 5844 5845 5844 5844 5844 5842 5841 5841 5838 5835 5832 5828 5823 5817 5811 5806 5800 5793 5786 5780 5773 5765 5758 5751 5744
5760 5771 5778 5785 5794 5800 5806 5810 5813 5817 5820 5822 5826 5828 5831 5830 5830 5831 5833 5834 5833 5834 5836 5834 5832 5834 5828 5828 5827 5824 5820 5814 5808 5803 5797 5790 5783 5777 5770 5763 5758 5751 5743 5735